{"data":{"norad_id":54089,"intl_designator":"2022-136AQ","name":"STARLINK-5143","alt_names":[],"object_type":"PAYLOAD","status":"ACTIVE","operator":null,"country":"US","launch_date":"2022-10-20","launch_site_code":"AFETR","launch_vehicle":null,"mission":null,"orbit_class":"UNKNOWN","rcs_meters":null,"size_class":null,"mass_kg":null,"dimensions":null,"purposes":["comms"],"wikipedia_slug":null,"has_3d_model":false,"image_url":null,"decayed_at":null,"tle_current":{"epoch":"2026-05-24T23:35:49.278336Z","epoch_age_seconds":73006,"freshness":"FRESH","line1":"1 54089U 22136AQ  26144.98320924  .00000897  00000+0  74422-4 0  9990","line2":"2 54089  53.2137 351.4983 0001265  87.0115 273.1022 15.08840658198503","mean_motion":15.08840658,"eccentricity":0.0001265,"inclination_deg":53.2137,"raan_deg":351.4983,"arg_perigee_deg":87.0115,"mean_anomaly_deg":273.1022,"bstar":7.4422e-5,"rev_number":19850,"period_min":95.43751305779,"perigee_km":538.86626610729,"apogee_km":540.61648933685,"semimajor_km":6917.8783777221,"source":"CELESTRAK","updated_at":"2026-05-25T13:38:17.655112Z"}}}